Flag for United Kingdom Weather past 2 weeks in Middlesbrough, England, United Kingdom

Now
54 °F

Partly sunny.


Feels Like: 48 °F
Forecast: 54 / 59 °F
Wind: 22 mph from Southwest

Location: Tees-Side

Current Time: Oct 25, 2014 at 1:10:47 PM

Latest Report: Oct 25, 2014 at 12:20 PM


Visibility: N/A

Pressure: 29.86 "Hg

Humidity: 77%

Dew point: 46 °F

Location of MiddlesbroughLocation

Historic Weather in Middlesbrough — Graph

°F

Middlesbrough temperature yesterday

Maximum temperature yesterday: 59 °F (at 12:50 PM)
Minimum temperature yesterday: 48 °F (at 8:50 PM)
Average temperature yesterday: 53 °F

Past Weeks' High & Low Weather Summary

 TemperatureHumidityPressure
High66 °F (Oct 18, 1:50 PM)100% (Oct 11, 8:20 AM)30.15 "Hg (Oct 11, 8:20 AM)
Low37 °F (Oct 12, 6:50 AM)50% (Oct 21, 3:20 PM)29.18 "Hg (Oct 21, 6:20 AM)
Average54 °F79%29.76 "Hg
* Reported Oct 10 11:20 AM — Oct 25 11:50 AM, Middlesbrough, Weather by CustomWeather, © 2014

Note: Actual official high and low records may vary slightly from our data, if they occured in-between our weather recording intervals... More about our weather records

Advertising

Middlesbrough weather history for previous 24 hours

 ConditionsComfort  
Time TempWeatherWind HumidityBarometerVisibility
11:50 AM
Oct 25
54 °FScattered clouds.17 mph77%29.86 "HgN/A
11:20 AM54 °FScattered clouds.20 mph72%29.86 "HgN/A
10:50 AM52 °FScattered clouds.15 mph77%29.86 "HgN/A
10:20 AM50 °FScattered clouds.14 mph82%29.86 "HgN/A
9:50 AM50 °FScattered clouds.22 mph82%29.83 "HgN/A
9:20 AM50 °FPassing clouds.13 mph76%29.86 "HgN/A
8:50 AM50 °FPassing clouds.14 mph76%29.86 "HgN/A
8:20 AM48 °FPassing clouds.9 mph82%29.86 "HgN/A
7:50 AM48 °FPassing clouds.10 mph82%29.86 "HgN/A
7:20 AM48 °FPassing clouds.13 mph82%29.83 "HgN/A
6:50 AM48 °FPassing clouds.17 mph82%29.86 "HgN/A
6:20 AM50 °FPassing clouds.18 mph76%29.83 "HgN/A
5:50 AM48 °FClear.15 mph82%29.83 "Hg10 mi
9:50 PM
Oct 24
48 °FClear.7 mph76%29.86 "Hg10 mi
9:20 PM48 °FClear.9 mph76%29.86 "Hg10 mi
8:50 PM48 °FClear.8 mph76%29.83 "Hg10 mi
8:20 PM50 °FPassing clouds.6 mph71%29.83 "HgN/A
7:50 PM50 °FPassing clouds.9 mph71%29.83 "HgN/A
7:20 PM50 °FPassing clouds.8 mph71%29.83 "HgN/A
6:50 PM52 °FPassing clouds.10 mph72%29.83 "HgN/A
6:20 PM52 °FPassing clouds.14 mph67%29.83 "HgN/A
5:50 PM54 °FPassing clouds.16 mph63%29.83 "HgN/A
5:20 PM54 °FPassing clouds.12 mph63%29.83 "HgN/A
4:50 PM55 °FPassing clouds.15 mph59%29.83 "HgN/A
4:20 PM55 °FPassing clouds.14 mph63%29.83 "HgN/A
3:50 PM54 °FPassing clouds.17 mph63%29.83 "HgN/A
3:20 PM57 °FScattered clouds.21 mph59%29.80 "HgN/A
2:50 PM59 °FScattered clouds.13 mph55%29.80 "HgN/A
2:20 PM59 °FPassing clouds.13 mph51%29.80 "HgN/A
1:50 PM59 °FPassing clouds.14 mph51%29.83 "HgN/A
1:20 PM59 °FPassing clouds.15 mph51%29.83 "HgN/A
Weather by CustomWeather, © 2014

See weather overviewHow to use our weather pages